Вернуться в каталог

COSMOS 970 DEB

АктивенLEO
NORAD 14444·DEBRIS·🇷🇺 Russia

Запущен Dec 21, 1977 с Baikonur Cosmodrome

Loading…

Ближайшие Пролёты (ближайшие 24 часа)

TLE

СвежийSource: Space-Track

Эпоха: Sep 14, 2026, 05:19 UTC

1 14444U 77121BG  26257.22195331  .00000644  00000-0  71421-3 0  9995
2 14444  65.7989 345.2057 0063146 276.0287 109.2790 13.77802507248777

Отслеживайте COSMOS 970 DEB в реальном времени с AllMySat

Download on the App Store